Location: Del Oro Observatory
(38.3044°N, 104.8119°W)
Time: 03:53:27
(UTC-06:00)

Iridium 35 - Visible Passes

Search period start: 30 August 2015 00:00
Search period end: 09 September 2015 00:00
Orbit: 776 x 779 km, 86.4° (Epoch: 29 August)

Date Brightness Start Highest point End Pass type
(mag) Time Alt. Az. Time Alt. Az. Time Alt. Az.
30 Aug 8.0 04:18:18 10° NE 04:20:35 13° ENE 04:23:10 10° ESE visible
30 Aug 5.0 05:56:46 10° N 06:01:57 65° W 06:07:05 10° S visible
31 Aug 5.4 05:23:13 10° N 05:28:26 68° E 05:33:37 10° S visible
01 Sep 6.7 04:50:01 10° NNE 04:54:46 35° E 04:59:34 10° SSE visible
02 Sep 7.6 04:17:20 10° NNE 04:20:57 19° ENE 04:24:45 10° ESE visible
02 Sep 5.4 05:57:02 10° NNW 06:01:59 44° W 06:06:52 10° SSW visible
03 Sep 5.0 05:23:17 10° N 05:28:32 83° W 05:33:45 10° S visible
04 Sep 5.8 04:49:53 10° N 04:54:58 52° E 05:00:04 10° SSE visible
05 Sep 7.0 04:16:51 10° NNE 04:21:15 28° E 04:25:45 10° SE visible
05 Sep 5.8 05:57:27 10° NNW 06:02:00 30° W 06:06:26 10° SW visible
06 Sep 7.8 03:44:31 10° NE 03:47:23 15° ENE 03:50:29 10° ESE visible
06 Sep 5.1 05:23:29 10° N 05:28:36 56° W 05:33:41 10° SSW visible
07 Sep 5.1 04:49:53 10° N 04:55:07 77° E 05:00:20 10° S visible
08 Sep 6.2 04:16:37 10° NNE 04:21:30 40° E 04:26:25 10° SSE visible
08 Sep 6.3 05:58:06 10° NW 06:01:59 21° W 06:05:42 10° SW visible
